Time,TemperatureF,DewpointF,PressureIn,WindDirection,WindDirectionDegrees,WindSpeedMPH,WindSpeedGustMPH,Humidity,HourlyPrecipIn,Conditions,Clouds,dailyrainin,SoftwareType,DateUTC
2013-01-07 00:00:00,15.5,13.1,30.35,SW,229,3.0,3.0,90,0.00,,,0.00,Wunderground v.1.15,2013-01-07 06:00:00,
2013-01-07 00:06:00,15.1,12.7,30.36,SW,229,4.0,5.0,90,0.00,,,0.00,Wunderground v.1.15,2013-01-07 06:06:00,
2013-01-07 00:11:00,15.2,13.0,30.35,SW,220,4.0,4.0,91,0.00,,,0.00,Wunderground v.1.15,2013-01-07 06:11:00,
2013-01-07 00:16:00,15.4,13.2,30.36,SW,220,4.0,5.0,91,0.00,,,0.00,Wunderground v.1.15,2013-01-07 06:16:00,
2013-01-07 00:21:00,15.0,12.6,30.36,SW,221,4.0,4.0,90,0.00,,,0.00,Wunderground v.1.15,2013-01-07 06:21:00,
2013-01-07 00:26:00,14.8,12.6,30.36,SSW,197,5.0,6.0,91,0.00,,,0.00,Wunderground v.1.15,2013-01-07 06:26:00,
2013-01-07 00:31:00,15.2,13.3,30.36,South,190,5.0,5.0,92,0.00,,,0.00,Wunderground v.1.15,2013-01-07 06:31:00,
2013-01-07 00:36:00,15.0,12.8,30.36,SSW,202,4.0,5.0,91,0.00,,,0.00,Wunderground v.1.15,2013-01-07 06:36:00,
2013-01-07 00:41:00,14.8,12.6,30.36,SSW,208,3.0,3.0,91,0.00,,,0.00,Wunderground v.1.15,2013-01-07 06:41:00,
2013-01-07 00:46:00,14.8,12.6,30.36,SW,226,3.0,4.0,91,0.00,,,0.00,Wunderground v.1.15,2013-01-07 06:46:00,
2013-01-07 00:51:00,14.3,11.9,30.36,SSW,213,4.0,5.0,90,0.00,,,0.00,Wunderground v.1.15,2013-01-07 06:51:00,
2013-01-07 00:57:00,14.0,11.9,30.36,SW,225,4.0,5.0,91,0.00,,,0.00,Wunderground v.1.15,2013-01-07 06:57:00,
2013-01-07 01:03:00,14.0,11.9,30.36,SW,220,3.0,3.0,91,0.00,,,0.00,Wunderground v.1.15,2013-01-07 07:03:00,
2013-01-07 01:08:00,14.0,11.9,30.35,SW,218,3.0,4.0,91,0.00,,,0.00,Wunderground v.1.15,2013-01-07 07:08:00,
2013-01-07 01:13:00,13.9,11.8,30.35,SSW,194,3.0,5.0,91,0.00,,,0.00,Wunderground v.1.15,2013-01-07 07:13:00,
2013-01-07 01:19:00,14.3,12.4,30.35,South,170,4.0,5.0,92,0.00,,,0.00,Wunderground v.1.15,2013-01-07 07:19:00,
2013-01-07 01:24:00,14.3,12.2,30.35,SSW,197,5.0,6.0,91,0.00,,,0.00,Wunderground v.1.15,2013-01-07 07:24:00,
2013-01-07 01:29:00,14.5,12.6,30.35,SW,216,5.0,6.0,92,0.00,,,0.00,Wunderground v.1.15,2013-01-07 07:29:00,
2013-01-07 01:34:00,14.5,12.4,30.35,SSW,194,5.0,6.0,91,0.00,,,0.00,Wunderground v.1.15,2013-01-07 07:34:00,
2013-01-07 01:40:00,14.8,12.9,30.36,South,175,6.0,6.0,92,0.00,,,0.00,Wunderground v.1.15,2013-01-07 07:40:00,
2013-01-07 01:45:00,15.2,13.3,30.36,SSW,204,6.0,7.0,92,0.00,,,0.00,Wunderground v.1.15,2013-01-07 07:45:00,
2013-01-07 01:50:00,15.0,12.8,30.36,SSW,212,5.0,5.0,91,0.00,,,0.00,Wunderground v.1.15,2013-01-07 07:50:00,
2013-01-07 01:56:00,14.8,12.6,30.36,SSW,209,5.0,6.0,91,0.00,,,0.00,Wunderground v.1.15,2013-01-07 07:56:00,
2013-01-07 02:01:00,14.7,12.6,30.36,SSW,207,4.0,6.0,91,0.00,,,0.00,Wunderground v.1.15,2013-01-07 08:01:00,
2013-01-07 02:07:00,14.6,12.5,30.36,South,183,4.0,6.0,91,0.00,,,0.00,Wunderground v.1.15,2013-01-07 08:07:00,
2013-01-07 02:12:00,14.6,12.5,30.36,SSW,213,4.0,4.0,91,0.00,,,0.00,Wunderground v.1.15,2013-01-07 08:12:00,
2013-01-07 02:17:00,14.3,12.2,30.36,SSW,201,5.0,6.0,91,0.00,,,0.00,Wunderground v.1.15,2013-01-07 08:17:00,
2013-01-07 02:22:00,14.3,12.2,30.37,SW,216,5.0,5.0,91,0.00,,,0.00,Wunderground v.1.15,2013-01-07 08:22:00,
2013-01-07 02:27:00,14.5,12.6,30.37,SSW,207,5.0,7.0,92,0.00,,,0.00,Wunderground v.1.15,2013-01-07 08:27:00,
2013-01-07 02:32:00,14.9,13.0,30.37,SSW,212,5.0,6.0,92,0.00,,,0.00,Wunderground v.1.15,2013-01-07 08:32:00,
2013-01-07 02:37:00,14.9,12.7,30.37,SW,215,4.0,6.0,91,0.00,,,0.00,Wunderground v.1.15,2013-01-07 08:37:00,
2013-01-07 02:43:00,14.5,12.4,30.38,SSW,213,4.0,4.0,91,0.00,,,0.00,Wunderground v.1.15,2013-01-07 08:43:00,
2013-01-07 02:48:00,13.9,11.5,30.38,SW,218,3.0,4.0,90,0.00,,,0.00,Wunderground v.1.15,2013-01-07 08:48:00,
2013-01-07 02:53:00,13.7,11.6,30.38,SSW,211,4.0,5.0,91,0.00,,,0.00,Wunderground v.1.15,2013-01-07 08:53:00,
2013-01-07 02:59:00,14.2,12.3,30.38,SSW,208,5.0,6.0,92,0.00,,,0.00,Wunderground v.1.15,2013-01-07 08:59:00,
2013-01-07 03:05:00,14.7,12.8,30.37,SSW,213,5.0,6.0,92,0.00,,,0.00,Wunderground v.1.15,2013-01-07 09:05:00,
2013-01-07 03:10:00,14.6,12.5,30.37,SSW,196,5.0,5.0,91,0.00,,,0.00,Wunderground v.1.15,2013-01-07 09:10:00,
2013-01-07 03:15:00,14.8,12.9,30.37,SSW,199,5.0,6.0,92,0.00,,,0.00,Wunderground v.1.15,2013-01-07 09:15:00,
2013-01-07 03:20:00,15.0,13.1,30.37,SSW,207,4.0,4.0,92,0.00,,,0.00,Wunderground v.1.15,2013-01-07 09:20:00,
2013-01-07 03:25:00,15.1,12.9,30.37,SSW,202,4.0,6.0,91,0.00,,,0.00,Wunderground v.1.15,2013-01-07 09:25:00,
2013-01-07 03:30:00,15.3,13.4,30.37,SSW,211,5.0,5.0,92,0.00,,,0.00,Wunderground v.1.15,2013-01-07 09:30:00,
2013-01-07 03:36:00,15.7,13.8,30.36,SSW,192,5.0,8.0,92,0.00,,,0.00,Wunderground v.1.15,2013-01-07 09:36:00,
2013-01-07 03:41:00,15.8,13.6,30.36,SSW,206,6.0,7.0,91,0.00,,,0.00,Wunderground v.1.15,2013-01-07 09:41:00,
2013-01-07 03:46:00,15.8,13.6,30.37,South,175,5.0,7.0,91,0.00,,,0.00,Wunderground v.1.15,2013-01-07 09:46:00,
2013-01-07 03:52:00,15.8,13.6,30.36,South,177,5.0,5.0,91,0.00,,,0.00,Wunderground v.1.15,2013-01-07 09:52:00,
2013-01-07 03:57:00,15.8,13.6,30.37,SSW,207,4.0,6.0,91,0.00,,,0.00,Wunderground v.1.15,2013-01-07 09:57:00,
2013-01-07 04:03:00,15.9,13.7,30.36,South,183,5.0,5.0,91,0.00,,,0.00,Wunderground v.1.15,2013-01-07 10:03:00,
2013-01-07 04:08:00,15.8,13.6,30.37,SW,215,5.0,5.0,91,0.00,,,0.00,Wunderground v.1.15,2013-01-07 10:08:00,
2013-01-07 04:13:00,15.5,13.3,30.37,SSW,212,5.0,6.0,91,0.00,,,0.00,Wunderground v.1.15,2013-01-07 10:13:00,
2013-01-07 04:19:00,15.2,12.8,30.37,SSW,213,5.0,6.0,90,0.00,,,0.00,Wunderground v.1.15,2013-01-07 10:19:00,
2013-01-07 04:24:00,14.9,12.5,30.37,SSW,211,5.0,5.0,90,0.00,,,0.00,Wunderground v.1.15,2013-01-07 10:24:00,
2013-01-07 04:29:00,14.8,12.6,30.37,SSW,209,4.0,5.0,91,0.00,,,0.00,Wunderground v.1.15,2013-01-07 10:29:00,
2013-01-07 04:35:00,15.0,12.8,30.37,SW,215,5.0,6.0,91,0.00,,,0.00,Wunderground v.1.15,2013-01-07 10:35:00,
2013-01-07 04:40:00,15.4,13.2,30.37,SSW,213,5.0,6.0,91,0.00,,,0.00,Wunderground v.1.15,2013-01-07 10:40:00,
2013-01-07 04:45:00,15.6,13.4,30.37,SW,225,6.0,6.0,91,0.00,,,0.00,Wunderground v.1.15,2013-01-07 10:45:00,
2013-01-07 04:50:00,16.0,14.1,30.37,SW,216,6.0,8.0,92,0.00,,,0.00,Wunderground v.1.15,2013-01-07 10:50:00,
2013-01-07 04:55:00,16.4,14.2,30.37,SSW,198,7.0,8.0,91,0.00,,,0.00,Wunderground v.1.15,2013-01-07 10:55:00,
2013-01-07 05:00:00,16.6,14.4,30.37,South,185,7.0,8.0,91,0.00,,,0.00,Wunderground v.1.15,2013-01-07 11:00:00,
2013-01-07 05:06:00,16.8,14.6,30.37,SSW,209,8.0,10.0,91,0.00,,,0.00,Wunderground v.1.15,2013-01-07 11:06:00,
2013-01-07 05:11:00,16.8,14.6,30.37,SSW,196,8.0,9.0,91,0.00,,,0.00,Wunderground v.1.15,2013-01-07 11:11:00,
2013-01-07 05:16:00,17.1,14.9,30.37,SSW,199,8.0,10.0,91,0.00,,,0.00,Wunderground v.1.15,2013-01-07 11:16:00,
2013-01-07 05:22:00,17.3,14.9,30.36,SW,216,8.0,9.0,90,0.00,,,0.00,Wunderground v.1.15,2013-01-07 11:22:00,
2013-01-07 05:27:00,17.4,15.0,30.36,SSW,198,7.0,9.0,90,0.00,,,0.00,Wunderground v.1.15,2013-01-07 11:27:00,
2013-01-07 05:32:00,17.5,15.1,30.36,SSW,213,8.0,10.0,90,0.00,,,0.00,Wunderground v.1.15,2013-01-07 11:32:00,
2013-01-07 05:38:00,17.5,15.1,30.36,SSW,213,9.0,12.0,90,0.00,,,0.00,Wunderground v.1.15,2013-01-07 11:38:00,
2013-01-07 05:43:00,17.4,15.0,30.37,SSW,209,9.0,12.0,90,0.00,,,0.00,Wunderground v.1.15,2013-01-07 11:43:00,
2013-01-07 05:48:00,17.3,14.9,30.37,SSW,197,9.0,12.0,90,0.00,,,0.00,Wunderground v.1.15,2013-01-07 11:48:00,
2013-01-07 05:53:00,17.4,15.0,30.37,SSW,208,8.0,9.0,90,0.00,,,0.00,Wunderground v.1.15,2013-01-07 11:53:00,
2013-01-07 05:59:00,17.3,14.9,30.37,SSW,211,9.0,11.0,90,0.00,,,0.00,Wunderground v.1.15,2013-01-07 11:59:00,
2013-01-07 06:05:00,17.0,14.6,30.37,SSW,202,8.0,9.0,90,0.00,,,0.00,Wunderground v.1.15,2013-01-07 12:05:00,
2013-01-07 06:10:00,17.1,14.7,30.37,SSW,198,8.0,8.0,90,0.00,,,0.00,Wunderground v.1.15,2013-01-07 12:10:00,
2013-01-07 06:16:00,17.3,14.9,30.37,SSW,205,9.0,11.0,90,0.00,,,0.00,Wunderground v.1.15,2013-01-07 12:16:00,
2013-01-07 06:21:00,17.3,14.9,30.37,SSW,207,9.0,9.0,90,0.00,,,0.00,Wunderground v.1.15,2013-01-07 12:21:00,
2013-01-07 06:27:00,17.4,15.0,30.37,SSW,208,8.0,10.0,90,0.00,,,0.00,Wunderground v.1.15,2013-01-07 12:27:00,
2013-01-07 06:32:00,17.5,15.1,30.36,SSW,204,8.0,9.0,90,0.00,,,0.00,Wunderground v.1.15,2013-01-07 12:32:00,
2013-01-07 06:37:00,17.7,15.3,30.36,SSW,198,8.0,10.0,90,0.00,,,0.00,Wunderground v.1.15,2013-01-07 12:37:00,
2013-01-07 06:42:00,18.1,15.7,30.36,SSW,206,9.0,14.0,90,0.00,,,0.00,Wunderground v.1.15,2013-01-07 12:42:00,
2013-01-07 06:47:00,18.2,15.8,30.36,SSW,213,9.0,14.0,90,0.00,,,0.00,Wunderground v.1.15,2013-01-07 12:47:00,
2013-01-07 06:53:00,18.3,15.6,30.36,SSW,194,8.0,11.0,89,0.00,,,0.00,Wunderground v.1.15,2013-01-07 12:53:00,
2013-01-07 06:58:00,18.3,15.6,30.36,SW,216,8.0,11.0,89,0.00,,,0.00,Wunderground v.1.15,2013-01-07 12:58:00,
2013-01-07 07:04:00,18.3,15.6,30.36,SSW,199,7.0,8.0,89,0.00,,,0.00,Wunderground v.1.15,2013-01-07 13:04:00,
2013-01-07 07:09:00,18.2,15.5,30.36,SSW,205,7.0,9.0,89,0.00,,,0.00,Wunderground v.1.15,2013-01-07 13:09:00,
2013-01-07 07:14:00,18.2,15.8,30.36,SSW,202,8.0,10.0,90,0.00,,,0.00,Wunderground v.1.15,2013-01-07 13:14:00,
2013-01-07 07:19:00,18.3,15.6,30.36,South,172,8.0,10.0,89,0.00,,,0.00,Wunderground v.1.15,2013-01-07 13:19:00,
2013-01-07 07:24:00,18.6,15.9,30.36,SSW,211,8.0,10.0,89,0.00,,,0.00,Wunderground v.1.15,2013-01-07 13:24:00,
2013-01-07 07:29:00,18.8,16.1,30.36,SSW,202,9.0,12.0,89,0.00,,,0.00,Wunderground v.1.15,2013-01-07 13:29:00,
2013-01-07 07:35:00,19.2,16.5,30.36,South,191,11.0,14.0,89,0.00,,,0.00,Wunderground v.1.15,2013-01-07 13:35:00,
2013-01-07 07:40:00,19.7,17.0,30.36,South,191,11.0,11.0,89,0.00,,,0.00,Wunderground v.1.15,2013-01-07 13:40:00,
2013-01-07 07:45:00,20.2,17.5,30.36,SSW,213,10.0,15.0,89,0.00,,,0.00,Wunderground v.1.15,2013-01-07 13:45:00,
2013-01-07 07:51:00,20.8,18.1,30.36,SSW,206,11.0,13.0,89,0.00,,,0.00,Wunderground v.1.15,2013-01-07 13:51:00,
2013-01-07 07:56:00,21.2,18.5,30.35,SSW,209,12.0,15.0,89,0.00,,,0.00,Wunderground v.1.15,2013-01-07 13:56:00,
2013-01-07 08:02:00,21.6,18.9,30.35,SSW,203,14.0,17.0,89,0.00,,,0.00,Wunderground v.1.15,2013-01-07 14:02:00,
2013-01-07 08:08:00,21.9,19.2,30.35,SW,215,14.0,17.0,89,0.00,,,0.00,Wunderground v.1.15,2013-01-07 14:08:00,
2013-01-07 08:13:00,22.2,19.5,30.35,SW,221,14.0,16.0,89,0.00,,,0.00,Wunderground v.1.15,2013-01-07 14:13:00,
2013-01-07 08:18:00,22.4,19.6,30.35,SSW,204,14.0,16.0,89,0.00,,,0.00,Wunderground v.1.15,2013-01-07 14:18:00,
2013-01-07 08:23:00,22.8,20.0,30.35,SSW,211,15.0,16.0,89,0.00,,,0.00,Wunderground v.1.15,2013-01-07 14:23:00,
2013-01-07 08:28:00,23.1,20.3,30.35,SSW,211,15.0,19.0,89,0.00,,,0.00,Wunderground v.1.15,2013-01-07 14:28:00,
2013-01-07 08:34:00,23.5,20.5,30.36,SSW,194,15.0,19.0,88,0.00,,,0.00,Wunderground v.1.15,2013-01-07 14:34:00,
2013-01-07 08:40:00,23.8,20.8,30.36,SSW,209,15.0,15.0,88,0.00,,,0.00,Wunderground v.1.15,2013-01-07 14:40:00,
2013-01-07 08:45:00,24.1,21.1,30.36,SSW,206,15.0,15.0,88,0.00,,,0.00,Wunderground v.1.15,2013-01-07 14:45:00,
2013-01-07 08:50:00,24.4,21.4,30.35,SSW,207,15.0,15.0,88,0.00,,,0.00,Wunderground v.1.15,2013-01-07 14:50:00,
2013-01-07 08:55:00,24.6,21.6,30.35,SSW,213,16.0,22.0,88,0.00,,,0.00,Wunderground v.1.15,2013-01-07 14:55:00,
2013-01-07 09:00:00,24.9,21.8,30.35,SSW,198,17.0,17.0,88,0.00,,,0.00,Wunderground v.1.15,2013-01-07 15:00:00,
2013-01-07 09:06:00,25.3,22.2,30.35,SSW,209,17.0,19.0,88,0.00,,,0.00,Wunderground v.1.15,2013-01-07 15:06:00,
2013-01-07 09:11:00,25.6,22.5,30.35,SSW,199,17.0,21.0,88,0.00,,,0.00,Wunderground v.1.15,2013-01-07 15:11:00,
2013-01-07 09:16:00,25.9,22.6,30.35,South,191,18.0,21.0,87,0.00,,,0.00,Wunderground v.1.15,2013-01-07 15:16:00,
2013-01-07 09:22:00,26.2,22.9,30.35,SW,222,19.0,19.0,87,0.00,,,0.00,Wunderground v.1.15,2013-01-07 15:22:00,
2013-01-07 09:27:00,26.7,23.6,30.34,South,177,17.0,19.0,88,0.00,,,0.00,Wunderground v.1.15,2013-01-07 15:27:00,
2013-01-07 09:33:00,27.0,23.4,30.34,SSW,209,16.0,18.0,86,0.00,,,0.00,Wunderground v.1.15,2013-01-07 15:33:00,
2013-01-07 09:39:00,27.3,23.7,30.34,SSW,206,16.0,22.0,86,0.00,,,0.00,Wunderground v.1.15,2013-01-07 15:39:00,
2013-01-07 09:45:00,27.5,24.1,30.34,SSW,212,18.0,23.0,87,0.00,,,0.00,Wunderground v.1.15,2013-01-07 15:45:00,
2013-01-07 09:51:00,27.8,24.2,30.34,SSW,198,19.0,24.0,86,0.00,,,0.00,Wunderground v.1.15,2013-01-07 15:51:00,
2013-01-07 09:56:00,28.2,24.8,30.34,South,191,18.0,24.0,87,0.00,,,0.00,Wunderground v.1.15,2013-01-07 15:56:00,
2013-01-07 10:01:00,28.4,24.5,30.34,SSW,212,18.0,23.0,85,0.00,,,0.00,Wunderground v.1.15,2013-01-07 16:01:00,
2013-01-07 10:06:00,28.7,25.0,30.35,SSW,211,18.0,23.0,86,0.00,,,0.00,Wunderground v.1.15,2013-01-07 16:06:00,
2013-01-07 10:12:00,29.2,25.3,30.35,SSW,204,15.0,17.0,85,0.00,,,0.00,Wunderground v.1.15,2013-01-07 16:12:00,
2013-01-07 10:17:00,29.4,25.4,30.34,SSW,198,15.0,20.0,85,0.00,,,0.00,Wunderground v.1.15,2013-01-07 16:17:00,
2013-01-07 10:22:00,29.7,25.5,30.34,SSW,201,15.0,18.0,84,0.00,,,0.00,Wunderground v.1.15,2013-01-07 16:22:00,
2013-01-07 10:27:00,30.0,26.0,30.34,SSW,204,14.0,18.0,85,0.00,,,0.00,Wunderground v.1.15,2013-01-07 16:27:00,
2013-01-07 10:33:00,30.3,25.5,30.34,SSW,205,17.0,24.0,82,0.00,,,0.00,Wunderground v.1.15,2013-01-07 16:33:00,
2013-01-07 10:38:00,30.5,25.7,30.33,SSW,204,20.0,24.0,82,0.00,,,0.00,Wunderground v.1.15,2013-01-07 16:38:00,
2013-01-07 10:44:00,30.8,26.2,30.33,SSW,194,18.0,22.0,83,0.00,,,0.00,Wunderground v.1.15,2013-01-07 16:44:00,
2013-01-07 10:49:00,31.0,26.1,30.33,SSW,199,17.0,22.0,82,0.00,,,0.00,Wunderground v.1.15,2013-01-07 16:49:00,
2013-01-07 10:54:00,31.1,26.5,30.32,SSE,150,17.0,18.0,83,0.00,,,0.00,Wunderground v.1.15,2013-01-07 16:54:00,
2013-01-07 10:59:00,31.3,26.4,30.32,SSW,211,17.0,20.0,82,0.00,,,0.00,Wunderground v.1.15,2013-01-07 16:59:00,
2013-01-07 11:05:00,31.5,26.6,30.31,SSW,208,17.0,21.0,82,0.00,,,0.00,Wunderground v.1.15,2013-01-07 17:05:00,
2013-01-07 11:10:00,31.7,26.5,30.31,SSW,204,17.0,19.0,81,0.00,,,0.00,Wunderground v.1.15,2013-01-07 17:10:00,
2013-01-07 11:15:00,31.9,27.0,30.31,SW,215,18.0,20.0,82,0.00,,,0.00,Wunderground v.1.15,2013-01-07 17:15:00,
2013-01-07 11:20:00,32.0,26.8,30.30,SSW,202,17.0,20.0,81,0.00,,,0.00,Wunderground v.1.15,2013-01-07 17:20:00,
2013-01-07 11:26:00,32.3,27.4,30.30,SSW,204,16.0,20.0,82,0.00,,,0.00,Wunderground v.1.15,2013-01-07 17:26:00,
2013-01-07 11:31:00,32.6,27.7,30.30,SSW,202,15.0,23.0,82,0.00,,,0.00,Wunderground v.1.15,2013-01-07 17:31:00,
2013-01-07 11:36:00,32.8,27.3,30.29,SSW,211,17.0,23.0,80,0.00,,,0.00,Wunderground v.1.15,2013-01-07 17:36:00,
2013-01-07 11:41:00,32.9,27.1,30.29,South,171,19.0,19.0,79,0.00,,,0.00,Wunderground v.1.15,2013-01-07 17:41:00,
2013-01-07 11:46:00,33.1,27.6,30.28,SSW,206,19.0,20.0,80,0.00,,,0.00,Wunderground v.1.15,2013-01-07 17:46:00,
2013-01-07 11:51:00,33.2,27.7,30.27,SSE,156,18.0,19.0,80,0.00,,,0.00,Wunderground v.1.15,2013-01-07 17:51:00,
2013-01-07 11:57:00,33.3,27.8,30.27,South,171,17.0,19.0,80,0.00,,,0.00,Wunderground v.1.15,2013-01-07 17:57:00,
2013-01-07 12:03:00,33.5,28.0,30.27,SSW,199,18.0,20.0,80,0.00,,,0.00,Wunderground v.1.15,2013-01-07 18:03:00,
2013-01-07 12:08:00,33.6,28.1,30.27,South,178,18.0,20.0,80,0.00,,,0.00,Wunderground v.1.15,2013-01-07 18:08:00,
2013-01-07 12:13:00,33.8,28.6,30.26,South,191,17.0,18.0,81,0.00,,,0.00,Wunderground v.1.15,2013-01-07 18:13:00,
2013-01-07 12:18:00,33.9,28.1,30.26,SW,219,18.0,21.0,79,0.00,,,0.00,Wunderground v.1.15,2013-01-07 18:18:00,
2013-01-07 12:23:00,34.1,28.0,30.26,SSW,204,20.0,22.0,78,0.00,,,0.00,Wunderground v.1.15,2013-01-07 18:23:00,
2013-01-07 12:29:00,34.3,28.5,30.25,SW,223,21.0,23.0,79,0.00,,,0.00,Wunderground v.1.15,2013-01-07 18:29:00,
2013-01-07 12:34:00,34.4,28.2,30.25,SW,233,21.0,22.0,78,0.00,,,0.00,Wunderground v.1.15,2013-01-07 18:34:00,
2013-01-07 12:39:00,34.5,28.7,30.24,SW,216,21.0,25.0,79,0.00,,,0.00,Wunderground v.1.15,2013-01-07 18:39:00,
2013-01-07 12:44:00,34.6,28.4,30.24,SW,215,22.0,25.0,78,0.00,,,0.00,Wunderground v.1.15,2013-01-07 18:44:00,
2013-01-07 12:49:00,34.7,28.2,30.24,SSW,211,22.0,26.0,77,0.00,,,0.00,Wunderground v.1.15,2013-01-07 18:49:00,
2013-01-07 12:54:00,34.9,28.4,30.23,SSW,212,22.0,23.0,77,0.00,,,0.00,Wunderground v.1.15,2013-01-07 18:54:00,
2013-01-07 12:59:00,35.1,29.2,30.23,SSW,202,20.0,25.0,79,0.00,,,0.00,Wunderground v.1.15,2013-01-07 18:59:00,
2013-01-07 13:05:00,35.3,29.1,30.23,SSW,202,19.0,25.0,78,0.00,,,0.00,Wunderground v.1.15,2013-01-07 19:05:00,
2013-01-07 13:11:00,35.4,29.2,30.23,SW,228,20.0,21.0,78,0.00,,,0.00,Wunderground v.1.15,2013-01-07 19:11:00,
2013-01-07 13:16:00,35.5,29.6,30.23,SSW,204,20.0,21.0,79,0.00,,,0.00,Wunderground v.1.15,2013-01-07 19:16:00,
2013-01-07 13:22:00,35.6,29.7,30.22,SSW,198,19.0,22.0,79,0.00,,,0.00,Wunderground v.1.15,2013-01-07 19:22:00,
2013-01-07 13:28:00,35.7,29.8,30.22,SSW,207,19.0,22.0,79,0.00,,,0.00,Wunderground v.1.15,2013-01-07 19:28:00,
2013-01-07 13:33:00,35.8,29.9,30.21,SW,218,20.0,25.0,79,0.00,,,0.00,Wunderground v.1.15,2013-01-07 19:33:00,
2013-01-07 13:38:00,35.8,30.2,30.21,SW,226,20.0,25.0,80,0.00,,,0.00,Wunderground v.1.15,2013-01-07 19:38:00,
2013-01-07 13:43:00,35.8,29.9,30.21,SSW,204,20.0,21.0,79,0.00,,,0.00,Wunderground v.1.15,2013-01-07 19:43:00,
2013-01-07 13:48:00,35.9,30.0,30.20,SSW,211,21.0,28.0,79,0.00,,,0.00,Wunderground v.1.15,2013-01-07 19:48:00,
2013-01-07 13:53:00,36.1,30.2,30.20,SSW,213,21.0,26.0,79,0.00,,,0.00,Wunderground v.1.15,2013-01-07 19:53:00,
2013-01-07 13:58:00,36.2,30.0,30.19,SSW,195,22.0,26.0,78,0.00,,,0.00,Wunderground v.1.15,2013-01-07 19:58:00,
2013-01-07 14:04:00,36.4,30.5,30.19,SSW,202,23.0,25.0,79,0.00,,,0.00,Wunderground v.1.15,2013-01-07 20:04:00,
2013-01-07 14:09:00,36.4,29.9,30.19,SSW,206,23.0,26.0,77,0.00,,,0.00,Wunderground v.1.15,2013-01-07 20:09:00,
2013-01-07 14:14:00,36.5,30.6,30.19,SW,220,23.0,24.0,79,0.00,,,0.00,Wunderground v.1.15,2013-01-07 20:14:00,
2013-01-07 14:19:00,36.6,30.7,30.19,SSW,204,21.0,25.0,79,0.00,,,0.00,Wunderground v.1.15,2013-01-07 20:19:00,
2013-01-07 14:24:00,36.7,30.5,30.20,South,171,20.0,23.0,78,0.00,,,0.00,Wunderground v.1.15,2013-01-07 20:24:00,
2013-01-07 14:29:00,36.7,30.8,30.20,South,190,21.0,23.0,79,0.00,,,0.00,Wunderground v.1.15,2013-01-07 20:29:00,
2013-01-07 14:35:00,36.7,30.8,30.20,SW,222,20.0,22.0,79,0.00,,,0.00,Wunderground v.1.15,2013-01-07 20:35:00,
2013-01-07 14:40:00,36.8,30.6,30.21,SW,235,19.0,19.0,78,0.00,,,0.00,Wunderground v.1.15,2013-01-07 20:40:00,
2013-01-07 14:45:00,36.9,31.0,30.21,SW,216,18.0,19.0,79,0.00,,,0.00,Wunderground v.1.15,2013-01-07 20:45:00,
2013-01-07 14:50:00,37.1,31.2,30.20,SSW,212,16.0,16.0,79,0.00,,,0.00,Wunderground v.1.15,2013-01-07 20:50:00,
2013-01-07 14:55:00,37.2,30.7,30.20,SW,223,17.0,19.0,77,0.00,,,0.00,Wunderground v.1.15,2013-01-07 20:55:00,
2013-01-07 15:00:00,37.3,30.7,30.20,SSW,201,17.0,18.0,77,0.00,,,0.00,Wunderground v.1.15,2013-01-07 21:00:00,
2013-01-07 15:06:00,37.3,31.1,30.19,SW,223,16.0,18.0,78,0.00,,,0.00,Wunderground v.1.15,2013-01-07 21:06:00,
2013-01-07 15:11:00,37.3,31.1,30.19,SSW,208,15.0,17.0,78,0.00,,,0.00,Wunderground v.1.15,2013-01-07 21:11:00,
2013-01-07 15:16:00,37.2,30.7,30.19,South,190,15.0,20.0,77,0.00,,,0.00,Wunderground v.1.15,2013-01-07 21:16:00,
2013-01-07 15:21:00,37.0,30.5,30.19,SSW,194,16.0,20.0,77,0.00,,,0.00,Wunderground v.1.15,2013-01-07 21:21:00,
2013-01-07 15:27:00,36.9,30.7,30.19,SSW,209,16.0,20.0,78,0.00,,,0.00,Wunderground v.1.15,2013-01-07 21:27:00,
2013-01-07 15:32:00,36.8,30.6,30.19,SSW,211,15.0,16.0,78,0.00,,,0.00,Wunderground v.1.15,2013-01-07 21:32:00,
2013-01-07 15:37:00,36.7,30.5,30.19,SSW,211,14.0,16.0,78,0.00,,,0.00,Wunderground v.1.15,2013-01-07 21:37:00,
2013-01-07 15:42:00,36.7,30.5,30.19,SSW,209,13.0,14.0,78,0.00,,,0.00,Wunderground v.1.15,2013-01-07 21:42:00,
2013-01-07 15:47:00,36.6,30.7,30.19,SW,219,13.0,18.0,79,0.00,,,0.00,Wunderground v.1.15,2013-01-07 21:47:00,
2013-01-07 15:53:00,36.6,30.7,30.19,SSW,211,14.0,14.0,79,0.00,,,0.00,Wunderground v.1.15,2013-01-07 21:53:00,
2013-01-07 15:58:00,36.7,30.5,30.19,SW,216,14.0,18.0,78,0.00,,,0.00,Wunderground v.1.15,2013-01-07 21:58:00,
2013-01-07 16:04:00,36.5,30.3,30.18,SSW,202,15.0,19.0,78,0.00,,,0.00,Wunderground v.1.15,2013-01-07 22:04:00,
2013-01-07 16:09:00,36.4,30.2,30.18,SSW,208,15.0,19.0,78,0.00,,,0.00,Wunderground v.1.15,2013-01-07 22:09:00,
2013-01-07 16:14:00,36.1,29.9,30.18,SW,226,15.0,18.0,78,0.00,,,0.00,Wunderground v.1.15,2013-01-07 22:14:00,
2013-01-07 16:19:00,35.8,29.6,30.18,SSW,195,14.0,18.0,78,0.00,,,0.00,Wunderground v.1.15,2013-01-07 22:19:00,
2013-01-07 16:25:00,35.5,29.6,30.17,South,180,13.0,14.0,79,0.00,,,0.00,Wunderground v.1.15,2013-01-07 22:25:00,
2013-01-07 16:30:00,35.3,29.4,30.17,SSW,202,13.0,14.0,79,0.00,,,0.00,Wunderground v.1.15,2013-01-07 22:30:00,
2013-01-07 16:35:00,35.2,29.3,30.18,South,190,14.0,17.0,79,0.00,,,0.00,Wunderground v.1.15,2013-01-07 22:35:00,
2013-01-07 16:40:00,34.9,29.7,30.17,South,184,14.0,14.0,81,0.00,,,0.00,Wunderground v.1.15,2013-01-07 22:40:00,
2013-01-07 16:45:00,34.7,29.5,30.17,SSW,206,12.0,14.0,81,0.00,,,0.00,Wunderground v.1.15,2013-01-07 22:45:00,
2013-01-07 16:50:00,34.6,29.4,30.17,South,187,13.0,16.0,81,0.00,,,0.00,Wunderground v.1.15,2013-01-07 22:50:00,
2013-01-07 16:56:00,34.5,29.3,30.17,SSW,199,14.0,16.0,81,0.00,,,0.00,Wunderground v.1.15,2013-01-07 22:56:00,
2013-01-07 17:02:00,34.3,29.1,30.17,SW,215,15.0,16.0,81,0.00,,,0.00,Wunderground v.1.15,2013-01-07 23:02:00,
2013-01-07 17:07:00,34.1,29.2,30.16,SSW,207,14.0,16.0,82,0.00,,,0.00,Wunderground v.1.15,2013-01-07 23:07:00,
2013-01-07 17:12:00,34.0,29.1,30.16,South,191,15.0,17.0,82,0.00,,,0.00,Wunderground v.1.15,2013-01-07 23:12:00,
2013-01-07 17:17:00,33.8,28.9,30.16,SSW,206,14.0,17.0,82,0.00,,,0.00,Wunderground v.1.15,2013-01-07 23:17:00,
2013-01-07 17:22:00,33.6,29.0,30.15,South,175,12.0,13.0,83,0.00,,,0.00,Wunderground v.1.15,2013-01-07 23:22:00,
2013-01-07 17:28:00,33.5,28.9,30.15,South,175,12.0,17.0,83,0.00,,,0.00,Wunderground v.1.15,2013-01-07 23:28:00,
2013-01-07 17:33:00,33.4,28.8,30.16,SSW,211,13.0,15.0,83,0.00,,,0.00,Wunderground v.1.15,2013-01-07 23:33:00,
2013-01-07 17:38:00,33.3,28.7,30.16,SSW,198,13.0,16.0,83,0.00,,,0.00,Wunderground v.1.15,2013-01-07 23:38:00,
2013-01-07 17:43:00,33.1,28.5,30.16,SW,220,13.0,13.0,83,0.00,,,0.00,Wunderground v.1.15,2013-01-07 23:43:00,
2013-01-07 17:48:00,33.1,28.5,30.17,SW,220,12.0,13.0,83,0.00,,,0.00,Wunderground v.1.15,2013-01-07 23:48:00,
2013-01-07 17:53:00,33.0,28.7,30.16,SW,216,12.0,15.0,84,0.00,,,0.00,Wunderground v.1.15,2013-01-07 23:53:00,
2013-01-07 17:58:00,32.9,28.6,30.16,SW,218,13.0,16.0,84,0.00,,,0.00,Wunderground v.1.15,2013-01-07 23:58:00,
2013-01-07 18:03:00,32.9,28.3,30.16,SSW,201,14.0,15.0,83,0.00,,,0.00,Wunderground v.1.15,2013-01-08 00:03:00,
2013-01-07 18:09:00,32.9,28.3,30.16,SSW,205,13.0,15.0,83,0.00,,,0.00,Wunderground v.1.15,2013-01-08 00:09:00,
2013-01-07 18:14:00,32.9,28.3,30.16,SSW,202,13.0,14.0,83,0.00,,,0.00,Wunderground v.1.15,2013-01-08 00:14:00,
2013-01-07 18:19:00,32.7,28.1,30.16,SSW,213,13.0,14.0,83,0.00,,,0.00,Wunderground v.1.15,2013-01-08 00:19:00,
2013-01-07 18:24:00,32.6,28.3,30.16,SW,215,13.0,15.0,84,0.00,,,0.00,Wunderground v.1.15,2013-01-08 00:24:00,
2013-01-07 18:29:00,32.5,28.2,30.16,SW,215,13.0,15.0,84,0.00,,,0.00,Wunderground v.1.15,2013-01-08 00:29:00,
2013-01-07 18:34:00,32.4,28.4,30.16,SSW,192,13.0,15.0,85,0.00,,,0.00,Wunderground v.1.15,2013-01-08 00:34:00,
2013-01-07 18:40:00,32.2,28.2,30.16,SSW,192,14.0,15.0,85,0.00,,,0.00,Wunderground v.1.15,2013-01-08 00:40:00,
2013-01-07 18:45:00,32.1,28.1,30.16,SSW,213,13.0,15.0,85,0.00,,,0.00,Wunderground v.1.15,2013-01-08 00:45:00,
2013-01-07 18:50:00,32.0,28.0,30.15,SSW,209,13.0,14.0,85,0.00,,,0.00,Wunderground v.1.15,2013-01-08 00:50:00,
2013-01-07 18:55:00,31.9,27.9,30.15,SSW,213,13.0,15.0,85,0.00,,,0.00,Wunderground v.1.15,2013-01-08 00:55:00,
2013-01-07 19:00:00,31.8,28.1,30.15,SW,225,13.0,13.0,86,0.00,,,0.00,Wunderground v.1.15,2013-01-08 01:00:00,
2013-01-07 19:06:00,31.8,28.1,30.16,SSW,209,13.0,14.0,86,0.00,,,0.00,Wunderground v.1.15,2013-01-08 01:06:00,
2013-01-07 19:11:00,31.8,28.1,30.16,SW,220,14.0,14.0,86,0.00,,,0.00,Wunderground v.1.15,2013-01-08 01:11:00,
2013-01-07 19:16:00,31.7,28.0,30.16,SSW,205,13.0,15.0,86,0.00,,,0.00,Wunderground v.1.15,2013-01-08 01:16:00,
2013-01-07 19:21:00,31.6,27.9,30.15,SSW,213,13.0,15.0,86,0.00,,,0.00,Wunderground v.1.15,2013-01-08 01:21:00,
2013-01-07 19:27:00,31.5,27.8,30.15,SSW,213,13.0,15.0,86,0.00,,,0.00,Wunderground v.1.15,2013-01-08 01:27:00,
2013-01-07 19:32:00,31.4,27.7,30.15,SW,222,13.0,14.0,86,0.00,,,0.00,Wunderground v.1.15,2013-01-08 01:32:00,
2013-01-07 19:37:00,31.4,27.7,30.15,SSW,209,13.0,14.0,86,0.00,,,0.00,Wunderground v.1.15,2013-01-08 01:37:00,
2013-01-07 19:42:00,31.3,27.6,30.15,SW,216,14.0,14.0,86,0.00,,,0.00,Wunderground v.1.15,2013-01-08 01:42:00,
2013-01-07 19:47:00,31.2,27.5,30.14,SSW,211,14.0,15.0,86,0.00,,,0.00,Wunderground v.1.15,2013-01-08 01:47:00,
2013-01-07 19:52:00,31.2,27.5,30.14,SSW,209,15.0,17.0,86,0.00,,,0.00,Wunderground v.1.15,2013-01-08 01:52:00,
2013-01-07 19:57:00,31.2,27.5,30.15,SW,219,15.0,17.0,86,0.00,,,0.00,Wunderground v.1.15,2013-01-08 01:57:00,
2013-01-07 20:03:00,31.2,27.5,30.14,SW,220,15.0,18.0,86,0.00,,,0.00,Wunderground v.1.15,2013-01-08 02:03:00,
2013-01-07 20:09:00,31.1,27.4,30.14,SW,222,16.0,18.0,86,0.00,,,0.00,Wunderground v.1.15,2013-01-08 02:09:00,
2013-01-07 20:14:00,31.0,27.3,30.14,SSW,211,15.0,17.0,86,0.00,,,0.00,Wunderground v.1.15,2013-01-08 02:14:00,
2013-01-07 20:19:00,31.0,27.3,30.14,SW,219,15.0,17.0,86,0.00,,,0.00,Wunderground v.1.15,2013-01-08 02:19:00,
2013-01-07 20:24:00,30.9,27.2,30.14,SSW,208,15.0,17.0,86,0.00,,,0.00,Wunderground v.1.15,2013-01-08 02:24:00,
2013-01-07 20:29:00,30.9,27.2,30.14,SSW,208,15.0,17.0,86,0.00,,,0.00,Wunderground v.1.15,2013-01-08 02:29:00,
2013-01-07 20:34:00,30.8,27.1,30.14,SW,220,15.0,18.0,86,0.00,,,0.00,Wunderground v.1.15,2013-01-08 02:34:00,
2013-01-07 20:40:00,30.9,27.2,30.14,SSW,209,16.0,16.0,86,0.00,,,0.00,Wunderground v.1.15,2013-01-08 02:40:00,
2013-01-07 20:45:00,30.9,27.2,30.14,SSW,208,15.0,18.0,86,0.00,,,0.00,Wunderground v.1.15,2013-01-08 02:45:00,
2013-01-07 20:50:00,31.0,27.3,30.15,SSW,211,16.0,17.0,86,0.00,,,0.00,Wunderground v.1.15,2013-01-08 02:50:00,
2013-01-07 20:55:00,31.0,27.3,30.15,SW,219,16.0,18.0,86,0.00,,,0.00,Wunderground v.1.15,2013-01-08 02:55:00,
2013-01-07 21:00:00,31.0,27.3,30.15,SSW,205,14.0,16.0,86,0.00,,,0.00,Wunderground v.1.15,2013-01-08 03:00:00,
2013-01-07 21:06:00,31.0,27.3,30.15,SSW,211,14.0,17.0,86,0.00,,,0.00,Wunderground v.1.15,2013-01-08 03:06:00,
2013-01-07 21:12:00,31.0,27.3,30.15,SW,225,14.0,15.0,86,0.00,,,0.00,Wunderground v.1.15,2013-01-08 03:12:00,
2013-01-07 21:17:00,30.9,27.2,30.15,SW,220,14.0,16.0,86,0.00,,,0.00,Wunderground v.1.15,2013-01-08 03:17:00,
2013-01-07 21:22:00,30.8,27.1,30.15,SW,230,14.0,15.0,86,0.00,,,0.00,Wunderground v.1.15,2013-01-08 03:22:00,
2013-01-07 21:28:00,30.9,27.2,30.15,SW,222,14.0,16.0,86,0.00,,,0.00,Wunderground v.1.15,2013-01-08 03:28:00,
2013-01-07 21:33:00,30.8,27.1,30.15,SW,220,14.0,15.0,86,0.00,,,0.00,Wunderground v.1.15,2013-01-08 03:33:00,
2013-01-07 21:38:00,30.8,27.1,30.15,SSW,211,14.0,15.0,86,0.00,,,0.00,Wunderground v.1.15,2013-01-08 03:38:00,
2013-01-07 21:43:00,30.8,27.1,30.15,SSW,199,14.0,16.0,86,0.00,,,0.00,Wunderground v.1.15,2013-01-08 03:43:00,
2013-01-07 21:48:00,30.8,27.1,30.15,SW,218,13.0,16.0,86,0.00,,,0.00,Wunderground v.1.15,2013-01-08 03:48:00,
2013-01-07 21:53:00,30.7,27.0,30.14,SW,223,13.0,13.0,86,0.00,,,0.00,Wunderground v.1.15,2013-01-08 03:53:00,
2013-01-07 21:59:00,30.8,27.1,30.14,SW,218,13.0,14.0,86,0.00,,,0.00,Wunderground v.1.15,2013-01-08 03:59:00,
2013-01-07 22:05:00,30.8,27.1,30.14,SSW,199,13.0,15.0,86,0.00,,,0.00,Wunderground v.1.15,2013-01-08 04:05:00,
2013-01-07 22:10:00,30.8,27.1,30.14,SSW,202,12.0,12.0,86,0.00,,,0.00,Wunderground v.1.15,2013-01-08 04:10:00,
2013-01-07 22:15:00,30.8,27.1,30.14,SW,217,13.0,15.0,86,0.00,,,0.00,Wunderground v.1.15,2013-01-08 04:15:00,
2013-01-07 22:20:00,30.8,27.1,30.14,SSW,211,13.0,13.0,86,0.00,,,0.00,Wunderground v.1.15,2013-01-08 04:20:00,
2013-01-07 22:26:00,30.7,27.0,30.14,SSW,209,13.0,15.0,86,0.00,,,0.00,Wunderground v.1.15,2013-01-08 04:26:00,
2013-01-07 22:31:00,30.7,27.0,30.14,SW,219,12.0,13.0,86,0.00,,,0.00,Wunderground v.1.15,2013-01-08 04:31:00,
2013-01-07 22:36:00,30.6,26.9,30.14,SW,222,12.0,13.0,86,0.00,,,0.00,Wunderground v.1.15,2013-01-08 04:36:00,
2013-01-07 22:41:00,30.6,26.9,30.14,SSW,213,12.0,14.0,86,0.00,,,0.00,Wunderground v.1.15,2013-01-08 04:41:00,
2013-01-07 22:46:00,30.5,26.8,30.14,SW,225,11.0,14.0,86,0.00,,,0.00,Wunderground v.1.15,2013-01-08 04:46:00,
2013-01-07 22:51:00,30.5,26.8,30.14,SSW,211,11.0,12.0,86,0.00,,,0.00,Wunderground v.1.15,2013-01-08 04:51:00,
2013-01-07 22:56:00,30.4,26.7,30.14,SW,218,11.0,13.0,86,0.00,,,0.00,Wunderground v.1.15,2013-01-08 04:56:00,
2013-01-07 23:01:00,30.4,26.7,30.14,SSW,199,11.0,18.0,86,0.00,,,0.00,Wunderground v.1.15,2013-01-08 05:01:00,
2013-01-07 23:03:00,30.3,26.6,30.14,SW,215,10.0,18.0,86,0.00,,,0.00,Wunderground v.1.15,2013-01-08 05:03:00,
2013-01-07 23:09:00,30.2,26.5,30.14,SSW,209,10.0,18.0,86,0.00,,,0.00,Wunderground v.1.15,2013-01-08 05:09:00,
2013-01-07 23:11:00,30.2,26.5,30.14,SW,219,10.0,18.0,86,0.00,,,0.00,Wunderground v.1.15,2013-01-08 05:11:00,
2013-01-07 23:16:00,30.2,26.5,30.14,SSW,211,10.0,18.0,86,0.00,,,0.00,Wunderground v.1.15,2013-01-08 05:16:00,
2013-01-07 23:22:00,30.1,26.4,30.14,SW,219,10.0,18.0,86,0.00,,,0.00,Wunderground v.1.15,2013-01-08 05:22:00,
2013-01-07 23:27:00,30.1,26.4,30.14,SW,215,10.0,18.0,86,0.00,,,0.00,Wunderground v.1.15,2013-01-08 05:27:00,
2013-01-07 23:32:00,30.1,26.4,30.14,SW,223,11.0,18.0,86,0.00,,,0.00,Wunderground v.1.15,2013-01-08 05:32:00,
2013-01-07 23:37:00,30.1,26.4,30.14,SSW,212,11.0,18.0,86,0.00,,,0.00,Wunderground v.1.15,2013-01-08 05:37:00,
2013-01-07 23:43:00,30.1,26.4,30.14,SSW,206,12.0,18.0,86,0.00,,,0.00,Wunderground v.1.15,2013-01-08 05:43:00,
2013-01-07 23:48:00,30.1,26.4,30.14,SW,221,12.0,18.0,86,0.00,,,0.00,Wunderground v.1.15,2013-01-08 05:48:00,
2013-01-07 23:53:00,30.1,26.4,30.14,SW,215,12.0,18.0,86,0.00,,,0.00,Wunderground v.1.15,2013-01-08 05:53:00,
2013-01-07 23:59:00,30.1,26.4,30.14,SW,216,11.0,18.0,86,0.00,,,0.00,Wunderground v.1.15,2013-01-08 05:59:00,